Погода в Претории

Россия / Оренбургская область     52°14′46″N   54°19′32″E
темп.,
°C
ветер,
м/с
пор.,
м/с
влажн.,
%
обл.,
%
осадки,
мм/ч
давл.,
гПа
погр.,
м
10 апреля, сб
сб1023:00+6юв61382100 0.0 1024235
02:00+5юв51283100 0.0 1024196
05:00+4вюв61382100 0.0 1025198
08:00+5вюв61482100 0.0 1026221
11:00+9юв81676100 0.0 1026348
14:00+15юв91663100 0.0 1026596
17:00+16юв101663100 0.0 1026689
20:00+11юв10187888 0.0 1027399
11 апреля, вс
вс1123:00+7юв9198717 0.0 1029360
02:00+6юв91874100 0.0 1030325
05:00+4юв8177565 0.0 1031301
08:00+4юв8167698 0.0 1032316
11:00+9юв812605 0.0 1032417
14:00+14юв68470 0.0 1032705
17:00+16ююв68454 0.0 1031812
20:00+12юв49657 0.0 1032175
12 апреля, пн
пн1223:00+8вюв49835 0.0 1033172
02:00+6вюв38895 0.0 1034147
05:00+5юв36815 0.0 103591
08:00+6вюв26685 0.0 1035143
11:00+12вюв44435 0.0 1035373
14:00+15вюв34315 0.0 1034688
17:00+17вюв34275 0.0 1033818
20:00+12в3341100 0.0 103325
13 апреля, вт
вт1323:00+10вюв3350100 0.0 103428
02:00+7вюв336522 0.0 103540
05:00+5вюв337044 0.0 103531
08:00+5вюв396317 0.0 1036201
11:00+11юв68365 0.0 1035441
14:00+15юв562613 0.0 1034730
17:00+17юв45255 0.0 1033860
20:00+13вюв22415 0.0 103213
14 апреля, ср
ср1423:00+10вюв33475 0.0 103215
02:00+7вюв33595 0.0 103216
05:00+6вюв22675 0.0 103211
08:00+7вюв24705 0.0 103280
11:00+13вюв44480 0.0 1030450
14:00+17вюв34340 0.0 1028889
17:00+18вюв33330 0.0 10271040
20:00+14в22500 0.0 102611